Location: Prescott
(34.5400°N, 112.4680°W)
Time: 20:38:07
(UTC-07:00)

Amateur Radio Satellites - All Passes

Search period start: 24 July 2014 20:08
Search period end: 25 July 2014 20:08
Location: Prescott, 34.5400°N, 112.4680°W

Satellite Date Start Highest point End Downlink Frequencies (MHz)
Time Altitude Azimuth
UKube-1 24 Jul 20:46:40 20:50:55 53° 74° (ENE) 20:55:11 145.840 MHz, 145.915 MHz
SO-50 24 Jul 21:11:02 21:13:11 13° 46° (NE) 21:15:20 436.795 FM
HO-68 24 Jul 21:35:52 21:42:35 43° 260° (W) 21:49:20 435.675 MHz FM
Oscar 11 24 Jul 21:36:55 21:41:14 85° 258° (WSW) 21:45:33 145.825 FM, Beacon 2401.500 USB
FUNcube-1 24 Jul 21:45:42 21:49:48 39° 74° (ENE) 21:53:49 145.950 - 145.970 MHz USB
RS-15 24 Jul 21:57:45 22:07:41 36° 47° (NE) 22:17:52 29.354 - 29.394 USB, Beacon 29.352 USB
MaSat-1 24 Jul 22:08:24 22:12:06 61° 295° (WNW) 22:16:30 437.345 MHz
UKube-1 24 Jul 22:26:22 22:27:23 11° 268° (W) 22:28:24 145.840 MHz, 145.915 MHz
SO-50 24 Jul 22:49:29 22:54:16 78° 242° (WSW) 22:59:05 436.795 FM
FUNcube-1 24 Jul 23:23:52 23:26:18 15° 266° (W) 23:28:43 145.950 - 145.970 MHz USB
Lituanica SAT-1 24 Jul 23:31:24 23:33:06 21° 323° (NW) 23:34:49 437.275 MHz beacon
UOSAT-12 24 Jul 23:36:16 23:40:04 23° 51° (NE) 23:43:49 437.025 FM, 437.400 FM
RS-15 25 Jul 00:09:43 00:20:34 63° 248° (WSW) 00:31:54 29.354 - 29.394 USB, Beacon 29.352 USB
PCSat 25 Jul 00:16:10 00:20:14 22° 106° (ESE) 00:24:18 145.825 MHz
ISS 25 Jul 00:38:30 00:41:49 69° 318° (NW) 00:45:10 145.800 FM
Oscar 16 25 Jul 00:50:22 00:52:53 14° 92° (E) 00:55:23 437.025 USB, Beacon 2401.1428
UOSAT-12 25 Jul 01:16:00 01:20:16 35° 247° (WSW) 01:24:28 437.025 FM, 437.400 FM
AO-27 25 Jul 01:21:00 01:22:22 11° 91° (E) 01:23:43 436.795 MHz FM
Uribyol 2 25 Jul 01:22:55 01:25:00 12° 92° (E) 01:27:05 436.500 FM
Sapphire 25 Jul 01:23:55 01:29:18 90° 115° (ESE) 01:34:45 437.095 MHz 1200 baud AX-25 AFSK
PCSat 25 Jul 01:58:13 02:03:19 42° 301° (WNW) 02:08:27 145.825 MHz
Oscar 19 25 Jul 01:59:47 02:04:57 71° 102° (ESE) 02:10:06 437.125 CW, 437.150 USB
ISS 25 Jul 02:18:14 02:19:05 11° 335° (NNW) 02:19:55 145.800 FM
Oscar 16 25 Jul 02:27:28 02:32:32 58° 286° (WNW) 02:37:35 437.025 USB, Beacon 2401.1428
TMSAT-1 25 Jul 02:34:33 02:38:08 18° 94° (E) 02:41:42 436.925 FM
ITAMSAT 1 25 Jul 02:39:04 02:44:15 76° 103° (ESE) 02:49:24 435.822 SSB
OPAL 25 Jul 02:44:51 02:48:40 23° 66° (ENE) 02:52:29 ?
AO-Echo 25 Jul 02:51:00 02:56:07 76° 284° (WNW) 03:01:01 ?
Gurwin Techsat 1B 25 Jul 02:54:55 02:59:56 42° 99° (E) 03:04:56 435.225 FM
JAS-1B 25 Jul 02:55:15 03:04:37 63° 100° (E) 03:12:35 435.800 - 435.900 CW/SSB
AO-27 25 Jul 02:57:08 03:02:18 70° 285° (WNW) 03:07:26 436.795 MHz FM
Uribyol 2 25 Jul 02:59:45 03:04:50 63° 286° (WNW) 03:09:54 436.500 FM
Sapphire 25 Jul 03:11:16 03:13:28 12° 313° (NW) 03:15:40 437.095 MHz 1200 baud AX-25 AFSK
Oscar 10/S400 25 Jul 03:33:54 04:47:18 60° 220° (SW) 12:34:46 145.825 - 145.975 CW/USB, Beacon 145.810 USB
Oscar 19 25 Jul 03:41:40 03:43:38 12° 297° (WNW) 03:45:36 437.125 CW, 437.150 USB
AO-7 25 Jul 03:56:30 04:03:34 30° 97° (E) 04:10:32 29.400 - 29.500 MHz
TMSAT-1 25 Jul 04:13:12 04:18:14 45° 288° (WNW) 04:23:14 436.925 FM
ITAMSAT 1 25 Jul 04:21:30 04:23:02 11° 298° (WNW) 04:24:35 435.822 SSB
OPAL 25 Jul 04:22:51 04:27:19 34° 260° (W) 04:31:49 ?
Gurwin Techsat 1B 25 Jul 04:35:43 04:39:34 21° 293° (WNW) 04:43:24 435.225 FM
Uosat F 25 Jul 04:44:02 04:49:04 79° 103° (ESE) 04:54:04 435.120 FM
JAS-1B 25 Jul 04:46:33 04:54:16 30° 300° (WNW) 05:01:13 435.800 - 435.900 CW/SSB
STRAND 1 25 Jul 05:03:55 05:04:57 11° 62° (ENE) 05:05:59 ?
KITSAT 1 25 Jul 05:09:24 05:14:42 19° 102° (ESE) 05:20:00 435.175 FM
Lituanica SAT-1 25 Jul 05:46:13 05:47:51 19° 37° (NE) 05:49:29 437.275 MHz beacon
AO-7 25 Jul 05:48:32 05:56:32 53° 293° (WNW) 06:04:28 29.400 - 29.500 MHz
JAS-2 25 Jul 06:00:49 06:05:50 28° 94° (E) 06:10:25 435.800 - 435.900 CW/SSB, 435.910 FM
PANSAT 25 Jul 06:02:10 06:04:57 19° 164° (SSE) 06:07:44 not established
Uosat F 25 Jul 06:26:22 06:27:08 10° 298° (WNW) 06:27:53 435.120 FM
MaSat-1 25 Jul 06:30:58 06:34:27 17° 54° (NE) 06:37:50 437.345 MHz
STRAND 1 25 Jul 06:38:15 06:43:24 81° 257° (WSW) 06:48:34 ?
Hamsat 25 Jul 06:42:18 06:46:34 68° 284° (WNW) 06:50:51 145.90 MHz
SO-67 25 Jul 06:53:15 06:55:40 18° 95° (E) 06:58:04 435.3500 MHz FM
KITSAT 1 25 Jul 07:01:07 07:09:12 76° 298° (WNW) 07:17:20 435.175 FM
ISS 25 Jul 07:10:21 07:13:18 27° 35° (NE) 07:16:14 145.800 FM
Lituanica SAT-1 25 Jul 07:19:59 07:20:16 10° 231° (SW) 07:20:33 437.275 MHz beacon
Saudisat 1A 25 Jul 07:30:43 07:34:32 29° 112° (ESE) 07:38:23 436.775 MHz
PANSAT 25 Jul 07:41:14 07:44:42 32° 176° (S) 07:48:10 not established
JAS-2 25 Jul 07:45:38 07:50:55 32° 293° (WNW) 07:55:44 435.800 - 435.900 CW/SSB, 435.910 FM
MaSat-1 25 Jul 08:07:01 08:12:15 59° 251° (WSW) 08:17:08 437.345 MHz
SO-67 25 Jul 08:26:04 08:28:37 19° 288° (WNW) 08:31:10 435.3500 MHz FM
UKube-1 25 Jul 08:40:43 08:42:21 12° 93° (E) 08:43:59 145.840 MHz, 145.915 MHz
ISS 25 Jul 08:47:10 08:49:56 24° 230° (SW) 08:52:41 145.800 FM
KITSAT 1 25 Jul 09:01:06 09:06:00 17° 319° (NW) 09:10:55 435.175 FM
HO-68 25 Jul 09:07:02 09:13:50 46° 100° (E) 09:20:35 435.675 MHz FM
PCSat 25 Jul 09:10:08 09:10:22 10° 45° (NE) 09:10:36 145.825 MHz
Saudisat 1A 25 Jul 09:10:29 09:14:05 24° 308° (NW) 09:17:43 436.775 MHz
PANSAT 25 Jul 09:21:12 09:24:31 28° 189° (S) 09:27:50 not established
Oscar 11 25 Jul 09:28:47 09:32:11 22° 96° (E) 09:35:35 145.825 FM, Beacon 2401.500 USB
UKube-1 25 Jul 10:14:35 10:18:47 48° 287° (WNW) 10:22:56 145.840 MHz, 145.915 MHz
Sapphire 25 Jul 10:15:46 10:20:41 34° 57° (ENE) 10:25:34 437.095 MHz 1200 baud AX-25 AFSK
PCSat 25 Jul 10:49:16 10:54:43 74° 63° (ENE) 11:00:06 145.825 MHz
HO-68 25 Jul 10:55:14 11:01:13 30° 296° (WNW) 11:07:12 435.675 MHz FM
PANSAT 25 Jul 11:02:19 11:04:11 13° 201° (SSW) 11:06:02 not established
Oscar 11 25 Jul 11:04:43 11:08:17 26° 289° (WNW) 11:11:52 145.825 FM, Beacon 2401.500 USB
FUNcube-1 25 Jul 11:14:22 11:18:27 56° 285° (WNW) 11:22:33 145.950 - 145.970 MHz USB
Sapphire 25 Jul 11:59:24 12:03:55 28° 253° (WSW) 12:08:26 437.095 MHz 1200 baud AX-25 AFSK
Oscar 16 25 Jul 12:04:22 12:07:09 15° 65° (ENE) 12:09:56 437.025 USB, Beacon 2401.1428
RS-15 25 Jul 12:18:39 12:27:38 29° 104° (ESE) 12:36:22 29.354 - 29.394 USB, Beacon 29.352 USB
AO-Echo 25 Jul 12:26:07 12:27:01 10° 62° (ENE) 12:27:54 ?
AO-27 25 Jul 12:35:32 12:37:59 14° 63° (ENE) 12:40:26 436.795 MHz FM
PCSat 25 Jul 12:35:37 12:37:24 12° 258° (WSW) 12:39:12 145.825 MHz
Uribyol 2 25 Jul 12:37:28 12:40:16 15° 64° (ENE) 12:43:04 436.500 FM
SO-50 25 Jul 13:01:08 13:05:34 81° 118° (ESE) 13:10:05 436.795 FM
Oscar 19 25 Jul 13:13:11 13:18:15 71° 75° (ENE) 13:23:21 437.125 CW, 437.150 USB
JAS-1B 25 Jul 13:33:57 13:41:44 41° 65° (ENE) 13:50:28 435.800 - 435.900 CW/SSB
Oscar 16 25 Jul 13:40:57 13:45:58 57° 259° (W) 13:51:01 437.025 USB, Beacon 2401.1428
UOSAT-12 25 Jul 13:45:49 13:48:11 14° 107° (ESE) 13:50:34 437.025 FM, 437.400 FM
TMSAT-1 25 Jul 13:52:03 13:55:57 21° 67° (ENE) 13:59:51 436.925 FM
ITAMSAT 1 25 Jul 13:53:28 13:58:41 81° 76° (ENE) 14:03:56 435.822 SSB
AO-Echo 25 Jul 13:59:42 14:04:57 86° 257° (WSW) 14:10:19 ?
AO-27 25 Jul 14:11:42 14:16:53 66° 258° (WSW) 14:22:06 436.795 MHz FM
Gurwin Techsat 1B 25 Jul 14:12:31 14:17:35 47° 72° (ENE) 14:22:39 435.225 FM
Uribyol 2 25 Jul 14:14:04 14:19:12 59° 259° (W) 14:24:20 436.500 FM
RS-15 25 Jul 14:27:57 14:39:03 67° 302° (WNW) 14:49:57 29.354 - 29.394 USB, Beacon 29.352 USB
SO-50 25 Jul 14:45:21 14:46:42 11° 315° (NW) 14:48:04 436.795 FM
AO-7 25 Jul 14:51:56 14:58:58 32° 61° (ENE) 15:06:01 29.400 - 29.500 MHz
Oscar 19 25 Jul 14:57:13 14:58:02 10° 269° (W) 14:58:50 437.125 CW, 437.150 USB
KITSAT 1 25 Jul 14:58:52 15:05:49 30° 50° (NE) 15:12:42 435.175 FM
UOSAT-12 25 Jul 15:23:23 15:27:50 51° 302° (WNW) 15:32:24 437.025 FM, 437.400 FM
JAS-1B 25 Jul 15:24:04 15:31:56 46° 264° (W) 15:41:00 435.800 - 435.900 CW/SSB
TMSAT-1 25 Jul 15:30:34 15:35:32 41° 261° (W) 15:40:32 436.925 FM
Uosat F 25 Jul 15:53:40 15:58:42 75° 75° (ENE) 16:03:45 435.120 FM
Gurwin Techsat 1B 25 Jul 15:54:15 15:57:44 18° 266° (W) 16:01:14 435.225 FM
Saudisat 1A 25 Jul 16:02:42 16:03:47 11° 45° (NE) 16:04:51 436.775 MHz
JAS-2 25 Jul 16:11:09 16:14:05 13° 59° (ENE) 16:16:58 435.800 - 435.900 CW/SSB, 435.910 FM
OPAL 25 Jul 16:35:24 16:40:29 82° 105° (ESE) 16:45:36 ?
AO-7 25 Jul 16:43:13 16:51:18 53° 258° (WSW) 16:59:27 29.400 - 29.500 MHz
RS-15 25 Jul 16:46:42 16:53:56 19° 328° (NNW) 17:01:11 29.354 - 29.394 USB, Beacon 29.352 USB
KITSAT 1 25 Jul 16:53:43 17:01:34 57° 249° (WSW) 17:09:22 435.175 FM
Hamsat 25 Jul 17:32:10 17:36:13 52° 75° (ENE) 17:40:17 145.90 MHz
Saudisat 1A 25 Jul 17:39:30 17:43:55 81° 242° (WSW) 17:48:17 436.775 MHz
JAS-2 25 Jul 17:50:06 17:57:55 72° 74° (ENE) 18:05:27 435.800 - 435.900 CW/SSB, 435.910 FM
OPAL 25 Jul 18:17:44 18:18:39 11° 300° (WNW) 18:19:35 ?
STRAND 1 25 Jul 18:52:41 18:57:35 45° 100° (E) 19:02:26 ?
SO-67 25 Jul 18:54:48 18:58:15 74° 78° (ENE) 19:01:43 435.3500 MHz FM
RS-15 25 Jul 19:10:40 19:13:06 11° 7° (N) 19:15:32 29.354 - 29.394 USB, Beacon 29.352 USB
HO-68 25 Jul 19:32:57 19:38:27 25° 62° (ENE) 19:43:57 435.675 MHz FM
JAS-2 25 Jul 19:37:44 19:43:16 21° 268° (W) 19:48:43 435.800 - 435.900 CW/SSB, 435.910 FM
